SCP
0 0 0 0 0 0 0 0 0 0 0 0 0 0 0 0 0 0 0 0 0 0 0 0 0 0 0 0 0 0 0 0 0 0 0 0 0 0 0 0 0 0 0 0 0 0 0 0 0
0 0 0 0 0 0 0 0 0 0 0 0 0 0 0 0 0 0 0 0 0 0 0 0 0 0 0 0 0 0 0 0 0 0 0 0 0 0 0 0 0 0 0 0 0 0 0 0 0
0 0 0 0 0 0 0 0 0 0 0 0 0 0 0 0 0 0 0 0 0 0 0 0 0 0 0 0 0 0 0 0 0 0 0 0 0 0 0 0 0 0 0 0 0 0 0 0 0
0 0 0 0 0 0 0 0 0 0 0 0 0 0 0 0 0 0 0 0 0 0 0 0 0 0 0 0 0 0 0 0 0 0 0 0 0 0 0 0 0 0 0 0 0 0 0 0 0
0 0 0 0 0 0 0 0 0 0 0 0 0 0 0 0 0 0 0 0 0 0 0 0 0 0 0 0 0 0 0 0 0 0 0 0 0 0 0 0 0 0 0 0 0 0 0 0 0
0 0 0 0 0 0 0 0 0 0 0 0 0 0 0 0 0 0 0 0 0 0 0 0 0 0 0 0 0 0 0 0 0 0 0 0 0 0 0 0 0 0 0 0 0 0 0 0 0
0 0 0 0 0 0 0 0 0 0 0 0 0 0 0 0 0 0 0 0 0 0 0 0 0 0 0 0 0 0 0 0 0 0 0 0 0 0 0 0 0 0 0 0 0 0 0 0 0
0 0 0 0 0 0 0 0 0 0 0 0 0 0 0 0 0 0 0 0 0 0 0 0 0 0 0 0 0 0 0 0 0 0 0 0 0 -0 0 0 0 0 0 0 0 0 0 0 0
0 0 0 0 0 0 0 0 0 0 0 0 0 0 0 0 0 0 0 0 0 0 0 0 0 0 0 0 0 0 0 0 0 0 0 0 0 0 0 0 0 0 0 0 0 0 0 0 0
0 0 0 0 0 0 0 0 0 0 0 0 0 0 0 0 0 0 0 0 0 0 0 0 0 0 0 0 0 0 0 0 0 0 0 0 0 0 0 0 0 0 0 0 0 0 0 0 0
0 0 0 0 0 0 0 0 0 0 0 0 0 0 0 0 0 0 0 0 0 0 0 0 0 0 0 0 0 0 0 0 0 0 0 0 0 0 0 0 0 0 0 0 0 0 0 0 0
0 0 0 0 0 0 0 0 0 0 0 0 0 0 0 0 0 0 0 0 0 0 0 0 0 0 0 0 0 0 0 0 0 0 0 0 0 0 0 0 0 0 0 0 0 0 0 0 0
0 0 0 0 0 0 0 0 0 0 0 0 0 0 0 0 0 0 0 0 0 0 0 0 0 0 0 0 0 0 0 0 0 0 0 0 0 0 0 0 0 0 0 0 0 0 0 0 0
0 0 0 0 0 0 0 0 0 0 0 0 0 0 0 0 0 0 0 0 0 0 0 0 0 0 0 0 0 0 0 0 0 0 0 0 0 0 0 0 0 0 0 0 0 0 0 0 0
0 0 0 0 0 0 0 0 0 0 0 0 0 0 0 0 0 0 0 0 0 0 0 0 0 0 0 0 0 0 0 0 0 0 0 0 0 0 0 0 0 0 0 0 0 0 0 0 0
0 0 0 0 0 0 0 0 0 0 0 0 0 0 0 0 0 0 0 0 0 0 0 0 0 0 0 0 0 0 0 0 0 0 0 0 0 0 0 0 0 0 0 0 0 0 0 0 0
0 0 0 0 0 0 0 0 0 0 0 0 0 0 0 0 0 0 0 0 0 0 0 0 0 0 0 0 0 0 0 0 0 0 0 0 0 0 0 0 0 0 0 0 0 0 0 0 0
0 0 0 0 0 0 0 0 0 0 0 0 0 0 0 0 0 0 0 0 0 0 0 0 0 0 0 0 0 0 0 0 0 0 0 0 0 0 0 0 0 0 0 0 0 0 0 0 0
0 0 0 0 0 0 0 0 0 0 0 0 0 0 0 0 0 0 0 0 0 0 0 0 0 0 0 0 0 0 0 0 0 0 0 0 0 0 0 0 0 0 0 0 0 0 0 0 0
0 0 0 0 0 0 0 0 0 0 0 0 0 0 0 0 0 0 0 0 0 0 0 0 0 0 0 0 0 0 0 0 0 0 0 0 0 0 0 0 0 0 0 0 0 0 0 0 0
0 0 0 0 0 0 0 0 0 0 0 0 0 0 0 0 0 0 0 0 0 0 0 0 0 0 0 0 0 0 0 0 0 0 0 0 0 0 0 0 0 0 0 0 0 0 0 0 0
0 0 0 0 0 0 0 0 0 0 0 0 0 0 0 0 0 0 0 0 0 0 0 0 0 0 0 0 0 0 0 0 0 0 0 0 0 0 0 0 0 0 0 0 0 0 0 0 0
0 0 0 0 0 0 0 0 0 0 0 0 0 0 0 0 0 0 0 0 0 0 0 0 0 0 0 0 0 0 0 0 0 0 0 0 0 0 0 0 0 0 0 0 0 0 0 0 0
0 0 0 0 0 0 0 0 -0 0 0 0 0 0 0 0 0 0 0 0 0 0 0 0 0 0 0 0 0 0 0 0 0 0 0 0 0 0 0 0 0 0 0 0 0 0 0 0 0
0 0 0 0 0 0 0 0 0 0 0 0 0 0 0 0 0 0 0 0 0 0 0 0 0 0 0 0 0 0 0 0 0 0 0 0 0 0 0 0 0 0 0 0 0 0 0 0 0
0 0 0 0 0 0 0 0 0 0 0 0 0 0 0 0 0 0 0 0 0 0 0 0 0 0 0 0 0 0 0 0 0 0 0 0 0 0 0 0 0 0 0 0 0 0 0 0 0
0 0 0 0 0 0 0 0 0 0 0 0 0 0 0 0 0 0 0 0 0 0 0 0 0 0 0 0 0 0 0 0 0 0 0 0 0 0 0 0 0 0 0 0 0 0 0 0 0
0 0 0 0 0 0 0 0 0 0 0 0 0 0 0 0 0 0 0 0 0 0 0 0 0 0 0 0 0 0 0 0 0 0 0 0 0 0 0 0 0 0 0 0 0 0 0 0 0
0 0 0 0 0 0 0 0 0 0 0 0 -0 0 0 0 0 0 0 0 0 0 0 0 0 0 0 0 0 0 0 0 0 0 0 0 0 0 0 0 0 0 0 0 0 0 0 0 0
0 0 0 0 0 0 0 -0 0 0 0 0 0 0 0 0 0 0 0 0 0 0 0 0 0 0 0 0 0 0 0 0 0 0 0 0 0 0 0 0 0 0 0 0 0 0 0 0 0
Wind_Speed_500mb
9 8 6 5 12 10 19 11 5 13 11 5 4 3 2 11 4 3 16 25 34 35 30 28 25 16 15 11 12 11 8 10 12 15 14 14 14 16 15 12 11 15 16 14 10 16 13 8 12
11 8 5 7 14 18 18 9 16 11 11 20 13 7 5 6 8 14 18 27 31 30 27 24 27 20 17 15 11 6 5 6 7 8 8 9 11 15 15 17 18 20 22 24 28 28 23 19 18
9 9 9 7 14 23 13 11 12 17 20 12 10 5 4 7 12 18 23 30 30 27 24 22 26 24 21 17 10 6 3 6 8 11 14 14 17 19 18 20 22 22 25 28 32 29 27 21 17
6 5 6 13 21 17 9 8 11 27 10 10 10 10 8 14 13 17 32 32 33 30 24 22 25 25 18 12 9 6 2 3 9 14 17 19 19 21 21 22 22 21 22 22 25 28 27 22 20
8 7 13 15 26 10 7 6 24 24 15 17 16 12 11 17 20 29 30 30 30 30 27 21 22 19 15 11 9 8 3 3 8 13 16 19 22 24 23 22 22 21 21 19 18 19 20 17 17
9 6 12 28 27 10 5 15 20 17 13 15 12 21 12 22 27 31 28 28 29 28 25 19 18 15 11 8 6 3 0 4 7 11 19 22 24 26 26 25 22 20 19 19 16 13 11 8 10
8 10 21 21 18 17 11 21 19 19 17 13 12 14 12 29 32 33 30 29 27 25 22 19 14 12 9 6 3 0 5 9 14 17 15 20 22 22 23 22 19 18 17 15 14 10 6 4 10
6 8 11 13 16 15 12 21 5 15 12 15 21 11 12 41 43 39 34 29 26 24 22 19 16 14 11 7 3 3 6 10 12 13 14 14 14 20 16 13 11 14 17 16 13 7 2 6 4
10 11 19 12 9 5 18 18 9 10 10 12 17 9 11 46 46 41 36 32 28 26 22 19 16 13 10 6 1 5 9 7 7 9 11 15 14 16 18 21 22 20 18 15 12 9 7 7 8
15 11 17 2 4 3 17 19 21 12 14 14 14 19 24 48 46 41 36 33 30 26 23 20 17 13 8 5 3 2 4 7 9 10 14 15 16 17 19 21 21 21 20 19 17 15 14 13 13
8 15 3 3 0 5 9 12 15 13 15 22 27 36 39 52 45 40 36 32 31 28 24 21 17 12 8 5 2 3 7 10 12 15 14 17 17 18 19 20 20 20 22 22 22 21 19 19 19
10 7 5 5 5 8 7 7 11 25 7 16 20 35 45 54 48 43 42 39 34 31 26 21 16 12 9 7 5 5 8 8 11 11 12 14 14 15 15 15 17 18 20 23 24 24 25 23 23
12 9 7 6 7 6 11 15 15 23 25 14 23 37 47 49 45 42 42 39 36 31 26 20 16 14 12 9 9 9 9 9 8 9 9 11 11 11 13 14 16 17 20 23 25 25 24 23 23
3 8 9 10 8 6 11 12 8 14 27 24 27 40 45 50 51 50 49 43 39 32 26 22 19 16 15 14 13 12 11 9 8 7 8 10 11 13 14 15 16 17 21 24 24 24 22 22 21
8 5 5 13 10 9 8 15 24 15 27 26 32 38 44 49 53 53 47 44 38 32 27 25 22 21 20 19 17 16 14 12 10 8 8 10 11 13 14 15 16 18 22 24 24 25 25 26 25
6 4 10 7 13 6 12 31 11 26 32 32 35 38 45 49 54 50 47 45 41 36 32 29 27 25 23 22 20 18 15 14 12 11 11 12 13 15 17 17 18 21 23 24 24 26 26 28 27
8 13 13 5 18 5 21 22 7 18 27 34 39 42 45 47 55 55 52 49 44 39 36 33 31 29 27 25 23 21 18 16 15 14 14 14 15 17 18 18 19 22 22 23 23 26 25 27 26
17 14 11 16 10 13 17 38 14 19 28 37 40 43 46 50 61 60 58 53 48 44 41 38 35 33 32 29 25 22 20 18 17 16 16 16 17 19 20 19 21 22 21 22 23 21 25 26 25
5 11 14 5 6 9 26 36 35 31 30 39 46 49 54 57 55 61 61 57 54 51 48 44 41 39 36 33 31 27 23 21 19 17 16 17 18 20 21 21 22 22 22 21 21 20 19 20 20
19 25 27 4 6 10 18 36 37 33 44 57 57 58 60 53 56 66 68 65 63 57 52 50 46 43 41 37 33 29 26 24 21 19 19 18 19 19 20 21 21 21 20 20 20 17 13 10 9
23 31 25 17 5 13 17 38 36 24 51 46 60 61 60 67 71 75 77 75 69 65 60 55 51 48 46 43 38 34 31 28 25 23 22 20 19 18 18 19 18 18 18 17 16 14 14 13 13
25 14 13 12 10 18 4 22 22 12 27 27 51 62 67 71 74 77 81 81 76 68 62 57 55 54 51 47 42 35 32 31 29 27 25 23 22 21 20 19 18 16 16 15 14 13 12 12 13
4 3 9 8 18 12 18 15 15 1 21 37 38 67 74 78 82 84 88 82 75 70 68 62 60 59 56 52 46 43 40 37 33 31 30 28 26 25 23 21 20 18 16 15 15 13 12 11 10
14 8 6 4 3 15 25 23 35 27 24 26 31 62 73 75 79 82 81 78 77 74 70 67 67 65 62 58 52 48 44 40 39 37 35 33 31 28 26 24 22 20 18 15 12 11 10 8 7
7 11 5 9 9 15 4 17 36 24 23 22 22 35 60 70 78 81 84 87 83 84 78 74 71 70 67 63 58 53 48 44 39 38 38 36 35 33 29 26 24 23 20 16 14 11 9 7 5
17 6 8 14 11 11 6 20 13 20 24 29 31 22 37 67 84 96 98 92 91 87 83 78 74 72 70 66 61 56 53 50 45 43 40 38 36 34 31 29 26 24 21 18 15 12 10 8 6
12 16 3 3 3 9 14 20 24 27 33 25 27 27 40 59 77 93 96 93 94 92 88 81 74 69 70 67 63 61 57 55 47 45 44 42 39 36 33 30 27 24 22 19 16 13 12 11 10
5 2 7 5 9 16 15 13 21 16 17 25 26 41 39 52 61 78 95 95 94 91 86 79 71 65 65 66 64 61 58 55 49 48 46 44 41 37 34 31 28 25 23 20 18 17 16 15 15
9 8 6 4 7 10 17 15 12 23 8 19 23 31 36 43 60 77 86 88 90 89 88 83 75 69 66 67 66 63 60 57 53 51 49 45 43 40 36 33 30 27 24 22 21 21 20 20 21
4 10 20 11 14 10 9 29 5 11 15 18 24 25 36 48 55 66 77 82 87 91 92 87 80 74 70 66 67 65 61 61 57 54 51 48 45 42 38 36 33 30 27 25 24 24 25 25 26
Wind_Direction_500mb
259 261 257 221 235 238 226 204 140 162 173 149 138 242 103 47 343 8 158 164 168 174 179 193 200 204 213 214 248 280 292 274 268 266 270 289 292 295 303 301 276 245 237 237 249 273 279 286 254
262 244 237 239 246 225 215 178 199 158 126 130 118 126 165 98 91 137 142 160 168 174 178 190 194 204 213 223 241 259 273 286 299 301 299 303 302 296 302 297 294 288 277 268 267 274 287 275 274
239 232 229 234 242 240 249 191 154 129 128 148 135 68 77 112 125 144 159 157 162 173 177 188 191 208 214 222 232 225 272 316 312 316 314 313 307 306 307 300 296 292 287 284 282 283 277 277 278
198 214 230 243 234 241 260 155 149 147 164 165 156 126 106 153 151 163 160 161 164 169 177 191 193 203 212 227 235 227 210 336 328 327 325 322 317 315 313 311 310 309 301 294 287 281 275 274 274
196 217 232 244 244 246 223 176 168 170 156 163 174 151 135 165 161 161 165 167 167 171 177 193 203 203 217 228 229 233 223 57 12 353 345 341 333 328 325 321 319 317 313 312 307 296 277 262 260
197 255 224 237 233 230 213 179 175 189 164 150 160 144 145 178 166 168 169 172 173 176 177 184 194 208 219 230 237 248 76 64 64 25 355 348 343 339 337 338 339 335 329 325 325 319 305 271 256
244 222 240 253 260 232 200 173 197 185 170 175 161 160 157 172 178 174 174 175 177 177 179 182 182 194 208 206 193 46 356 356 355 356 7 352 346 343 339 337 342 345 341 337 335 327 328 264 243
224 247 239 231 236 259 162 170 204 192 172 177 164 183 182 185 181 180 178 177 177 177 178 179 175 172 170 167 186 342 345 358 354 360 1 342 358 356 5 8 15 15 9 4 2 359 294 341 25
196 232 246 238 189 223 168 193 187 188 147 178 192 173 198 182 180 180 180 179 181 181 178 178 174 170 167 164 210 303 329 344 32 20 24 23 14 17 24 29 33 32 27 26 31 40 60 91 102
212 234 245 260 206 204 187 210 179 177 176 202 193 197 172 175 179 178 177 179 179 179 175 174 174 177 195 227 252 318 23 8 34 42 45 41 33 33 37 44 41 44 45 50 58 68 81 92 109
206 238 206 172 250 86 207 218 184 200 211 208 207 189 180 177 179 178 178 182 180 178 176 177 183 190 206 224 178 75 55 48 50 49 44 47 43 44 42 46 47 51 58 65 70 78 90 100 110
227 219 185 201 189 141 186 183 221 218 237 201 200 203 186 181 182 181 184 185 182 180 183 187 193 202 199 191 151 108 86 78 65 59 51 54 49 46 44 47 53 59 68 75 79 85 88 95 101
223 185 179 235 228 185 193 225 246 235 229 221 197 189 188 184 185 185 189 187 187 188 190 199 204 201 194 172 154 134 116 98 89 75 66 59 57 57 58 61 67 74 80 85 86 88 92 98 103
212 168 183 197 202 212 224 226 212 212 215 210 198 190 190 189 188 189 193 192 192 194 201 203 202 197 185 177 163 146 140 134 112 85 71 64 61 60 61 67 75 84 90 90 90 92 95 100 104
133 182 253 202 194 213 196 241 230 211 198 198 194 193 192 193 195 199 198 197 201 203 207 206 200 192 187 177 167 160 154 143 120 104 89 81 78 80 81 83 89 98 101 98 94 96 98 101 104
174 234 239 140 171 220 190 257 200 200 191 198 196 194 195 196 201 200 203 205 207 209 209 205 199 191 185 178 172 166 156 142 134 124 110 104 100 97 95 100 109 111 109 104 102 101 104 105 107
206 243 213 247 209 170 212 262 134 197 200 206 203 200 200 200 203 205 208 208 210 211 208 206 198 192 186 183 178 166 157 148 138 132 124 117 110 106 103 110 117 116 115 113 111 113 110 108 106
221 224 225 238 172 219 223 249 225 208 210 217 214 207 208 208 210 208 209 208 210 208 205 204 200 196 190 185 177 168 161 151 146 139 132 123 117 115 114 117 119 121 122 121 117 118 118 115 109
255 233 243 196 164 228 241 256 255 223 217 224 219 214 214 214 209 211 210 210 210 209 208 206 202 197 193 186 180 173 167 159 151 145 139 132 129 125 121 122 125 129 134 131 127 125 118 115 109
243 251 249 257 177 215 269 267 264 238 229 221 216 215 215 211 207 208 209 211 211 212 209 206 202 199 193 187 185 180 172 166 158 155 150 145 139 132 126 125 127 129 136 139 135 132 124 119 109
233 238 246 255 195 238 287 276 255 234 233 226 222 220 216 210 208 208 209 210 210 211 209 207 203 199 195 191 187 184 178 174 168 165 158 152 145 138 132 128 127 133 141 145 146 137 126 113 110
248 227 224 211 231 263 246 284 256 235 232 221 223 216 212 209 211 210 208 209 211 211 208 207 204 201 198 194 191 189 187 181 176 172 166 162 158 154 151 148 145 144 140 142 143 145 141 130 117
247 171 191 209 240 288 219 267 253 147 252 238 218 215 211 211 209 208 210 212 211 209 208 205 203 203 201 197 194 192 189 186 183 179 176 172 171 168 165 163 159 153 152 157 154 148 146 136 127
141 117 91 97 225 254 237 225 269 233 228 242 228 218 212 207 208 209 211 210 209 207 206 205 204 203 202 200 198 197 195 192 190 186 183 181 181 179 176 174 170 169 172 170 163 161 156 147 136
204 168 201 223 206 255 123 226 253 297 257 238 247 224 214 207 205 204 204 205 206 206 204 204 205 205 204 202 201 200 198 196 196 194 192 190 189 188 184 181 184 183 182 180 182 183 180 175 172
187 225 212 253 227 281 145 238 256 248 289 264 252 251 218 205 207 207 207 206 206 204 205 205 205 206 206 205 203 202 201 200 199 198 198 197 196 195 192 193 193 193 190 193 197 199 203 210 219
173 215 58 38 122 271 235 259 273 259 267 256 254 233 220 209 205 206 204 205 205 204 205 206 205 207 209 207 205 205 205 204 204 203 201 202 202 201 200 201 201 202 203 206 211 219 229 238 248
270 90 160 199 245 250 243 262 248 283 252 243 235 231 224 208 203 199 202 203 204 205 206 206 207 209 210 209 209 209 209 207 209 208 209 208 207 207 209 209 211 214 216 220 226 234 245 255 264
170 201 210 291 230 258 281 263 222 243 331 291 284 246 225 212 204 199 201 202 204 205 206 206 205 207 208 209 210 210 210 210 212 211 211 212 213 213 214 216 219 222 226 231 238 247 256 264 271
329 222 187 221 216 242 284 260 234 268 280 282 286 253 225 213 206 202 201 202 204 206 207 206 207 208 209 209 209 210 210 211 213 213 213 214 215 216 217 219 224 228 233 240 246 254 262 269 274
Wind_Speed_850mb
9 8 6 5 12 10 19 11 5 13 11 5 4 3 2 11 4 3 16 25 34 35 30 28 25 16 15 11 12 11 8 10 12 15 14 14 14 16 15 12 11 15 16 14 10 16 13 8 12
11 8 5 7 14 18 18 9 16 11 11 20 13 7 5 6 8 14 18 27 31 30 27 24 27 20 17 15 11 6 5 6 7 8 8 9 11 15 15 17 18 20 22 24 28 28 23 19 18
9 9 9 7 14 23 13 11 12 17 20 12 10 5 4 7 12 18 23 30 30 27 24 22 26 24 21 17 10 6 3 6 8 11 14 14 17 19 18 20 22 22 25 28 32 29 27 21 17
6 5 6 13 21 17 9 8 11 27 10 10 10 10 8 14 13 17 32 32 33 30 24 22 25 25 18 12 9 6 2 3 9 14 17 19 19 21 21 22 22 21 22 22 25 28 27 22 20
8 7 13 15 26 10 7 6 24 24 15 17 16 12 11 17 20 29 30 30 30 30 27 21 22 19 15 11 9 8 3 3 8 13 16 19 22 24 23 22 22 21 21 19 18 19 20 17 17
9 6 12 28 27 10 5 15 20 17 13 15 12 21 12 22 27 31 28 28 29 28 25 19 18 15 11 8 6 3 0 4 7 11 19 22 24 26 26 25 22 20 19 19 16 13 11 8 10
8 10 21 21 18 17 11 21 19 19 17 13 12 14 12 29 32 33 30 29 27 25 22 19 14 12 9 6 3 0 5 9 14 17 15 20 22 22 23 22 19 18 17 15 14 10 6 4 10
6 8 11 13 16 15 12 21 5 15 12 15 21 11 12 41 43 39 34 29 26 24 22 19 16 14 11 7 3 3 6 10 12 13 14 14 14 20 16 13 11 14 17 16 13 7 2 6 4
10 11 19 12 9 5 18 18 9 10 10 12 17 9 11 46 46 41 36 32 28 26 22 19 16 13 10 6 1 5 9 7 7 9 11 15 14 16 18 21 22 20 18 15 12 9 7 7 8
15 11 17 2 4 3 17 19 21 12 14 14 14 19 24 48 46 41 36 33 30 26 23 20 17 13 8 5 3 2 4 7 9 10 14 15 16 17 19 21 21 21 20 19 17 15 14 13 13
8 15 3 3 0 5 9 12 15 13 15 22 27 36 39 52 45 40 36 32 31 28 24 21 17 12 8 5 2 3 7 10 12 15 14 17 17 18 19 20 20 20 22 22 22 21 19 19 19
10 7 5 5 5 8 7 7 11 25 7 16 20 35 45 54 48 43 42 39 34 31 26 21 16 12 9 7 5 5 8 8 11 11 12 14 14 15 15 15 17 18 20 23 24 24 25 23 23
12 9 7 6 7 6 11 15 15 23 25 14 23 37 47 49 45 42 42 39 36 31 26 20 16 14 12 9 9 9 9 9 8 9 9 11 11 11 13 14 16 17 20 23 25 25 24 23 23
3 8 9 10 8 6 11 12 8 14 27 24 27 40 45 50 51 50 49 43 39 32 26 22 19 16 15 14 13 12 11 9 8 7 8 10 11 13 14 15 16 17 21 24 24 24 22 22 21
8 5 5 13 10 9 8 15 24 15 27 26 32 38 44 49 53 53 47 44 38 32 27 25 22 21 20 19 17 16 14 12 10 8 8 10 11 13 14 15 16 18 22 24 24 25 25 26 25
6 4 10 7 13 6 12 31 11 26 32 32 35 38 45 49 54 50 47 45 41 36 32 29 27 25 23 22 20 18 15 14 12 11 11 12 13 15 17 17 18 21 23 24 24 26 26 28 27
8 13 13 5 18 5 21 22 7 18 27 34 39 42 45 47 55 55 52 49 44 39 36 33 31 29 27 25 23 21 18 16 15 14 14 14 15 17 18 18 19 22 22 23 23 26 25 27 26
17 14 11 16 10 13 17 38 14 19 28 37 40 43 46 50 61 60 58 53 48 44 41 38 35 33 32 29 25 22 20 18 17 16 16 16 17 19 20 19 21 22 21 22 23 21 25 26 25
5 11 14 5 6 9 26 36 35 31 30 39 46 49 54 57 55 61 61 57 54 51 48 44 41 39 36 33 31 27 23 21 19 17 16 17 18 20 21 21 22 22 22 21 21 20 19 20 20
19 25 27 4 6 10 18 36 37 33 44 57 57 58 60 53 56 66 68 65 63 57 52 50 46 43 41 37 33 29 26 24 21 19 19 18 19 19 20 21 21 21 20 20 20 17 13 10 9
23 31 25 17 5 13 17 38 36 24 51 46 60 61 60 67 71 75 77 75 69 65 60 55 51 48 46 43 38 34 31 28 25 23 22 20 19 18 18 19 18 18 18 17 16 14 14 13 13
25 14 13 12 10 18 4 22 22 12 27 27 51 62 67 71 74 77 81 81 76 68 62 57 55 54 51 47 42 35 32 31 29 27 25 23 22 21 20 19 18 16 16 15 14 13 12 12 13
4 3 9 8 18 12 18 15 15 1 21 37 38 67 74 78 82 84 88 82 75 70 68 62 60 59 56 52 46 43 40 37 33 31 30 28 26 25 23 21 20 18 16 15 15 13 12 11 10
14 8 6 4 3 15 25 23 35 27 24 26 31 62 73 75 79 82 81 78 77 74 70 67 67 65 62 58 52 48 44 40 39 37 35 33 31 28 26 24 22 20 18 15 12 11 10 8 7
7 11 5 9 9 15 4 17 36 24 23 22 22 35 60 70 78 81 84 87 83 84 78 74 71 70 67 63 58 53 48 44 39 38 38 36 35 33 29 26 24 23 20 16 14 11 9 7 5
17 6 8 14 11 11 6 20 13 20 24 29 31 22 37 67 84 96 98 92 91 87 83 78 74 72 70 66 61 56 53 50 45 43 40 38 36 34 31 29 26 24 21 18 15 12 10 8 6
12 16 3 3 3 9 14 20 24 27 33 25 27 27 40 59 77 93 96 93 94 92 88 81 74 69 70 67 63 61 57 55 47 45 44 42 39 36 33 30 27 24 22 19 16 13 12 11 10
5 2 7 5 9 16 15 13 21 16 17 25 26 41 39 52 61 78 95 95 94 91 86 79 71 65 65 66 64 61 58 55 49 48 46 44 41 37 34 31 28 25 23 20 18 17 16 15 15
9 8 6 4 7 10 17 15 12 23 8 19 23 31 36 43 60 77 86 88 90 89 88 83 75 69 66 67 66 63 60 57 53 51 49 45 43 40 36 33 30 27 24 22 21 21 20 20 21
4 10 20 11 14 10 9 29 5 11 15 18 24 25 36 48 55 66 77 82 87 91 92 87 80 74 70 66 67 65 61 61 57 54 51 48 45 42 38 36 33 30 27 25 24 24 25 25 26
Wind_Direction_850mb
259 261 257 221 235 238 226 204 140 162 173 149 138 242 103 47 343 8 158 164 168 174 179 193 200 204 213 214 248 280 292 274 268 266 270 289 292 295 303 301 276 245 237 237 249 273 279 286 254
262 244 237 239 246 225 215 178 199 158 126 130 118 126 165 98 91 137 142 160 168 174 178 190 194 204 213 223 241 259 273 286 299 301 299 303 302 296 302 297 294 288 277 268 267 274 287 275 274
239 232 229 234 242 240 249 191 154 129 128 148 135 68 77 112 125 144 159 157 162 173 177 188 191 208 214 222 232 225 272 316 312 316 314 313 307 306 307 300 296 292 287 284 282 283 277 277 278
198 214 230 243 234 241 260 155 149 147 164 165 156 126 106 153 151 163 160 161 164 169 177 191 193 203 212 227 235 227 210 336 328 327 325 322 317 315 313 311 310 309 301 294 287 281 275 274 274
196 217 232 244 244 246 223 176 168 170 156 163 174 151 135 165 161 161 165 167 167 171 177 193 203 203 217 228 229 233 223 57 12 353 345 341 333 328 325 321 319 317 313 312 307 296 277 262 260
197 255 224 237 233 230 213 179 175 189 164 150 160 144 145 178 166 168 169 172 173 176 177 184 194 208 219 230 237 248 76 64 64 25 355 348 343 339 337 338 339 335 329 325 325 319 305 271 256
244 222 240 253 260 232 200 173 197 185 170 175 161 160 157 172 178 174 174 175 177 177 179 182 182 194 208 206 193 46 356 356 355 356 7 352 346 343 339 337 342 345 341 337 335 327 328 264 243
224 247 239 231 236 259 162 170 204 192 172 177 164 183 182 185 181 180 178 177 177 177 178 179 175 172 170 167 186 342 345 358 354 360 1 342 358 356 5 8 15 15 9 4 2 359 294 341 25
196 232 246 238 189 223 168 193 187 188 147 178 192 173 198 182 180 180 180 179 181 181 178 178 174 170 167 164 210 303 329 344 32 20 24 23 14 17 24 29 33 32 27 26 31 40 60 91 102
212 234 245 260 206 204 187 210 179 177 176 202 193 197 172 175 179 178 177 179 179 179 175 174 174 177 195 227 252 318 23 8 34 42 45 41 33 33 37 44 41 44 45 50 58 68 81 92 109
206 238 206 172 250 86 207 218 184 200 211 208 207 189 180 177 179 178 178 182 180 178 176 177 183 190 206 224 178 75 55 48 50 49 44 47 43 44 42 46 47 51 58 65 70 78 90 100 110
227 219 185 201 189 141 186 183 221 218 237 201 200 203 186 181 182 181 184 185 182 180 183 187 193 202 199 191 151 108 86 78 65 59 51 54 49 46 44 47 53 59 68 75 79 85 88 95 101
223 185 179 235 228 185 193 225 246 235 229 221 197 189 188 184 185 185 189 187 187 188 190 199 204 201 194 172 154 134 116 98 89 75 66 59 57 57 58 61 67 74 80 85 86 88 92 98 103
212 168 183 197 202 212 224 226 212 212 215 210 198 190 190 189 188 189 193 192 192 194 201 203 202 197 185 177 163 146 140 134 112 85 71 64 61 60 61 67 75 84 90 90 90 92 95 100 104
133 182 253 202 194 213 196 241 230 211 198 198 194 193 192 193 195 199 198 197 201 203 207 206 200 192 187 177 167 160 154 143 120 104 89 81 78 80 81 83 89 98 101 98 94 96 98 101 104
174 234 239 140 171 220 190 257 200 200 191 198 196 194 195 196 201 200 203 205 207 209 209 205 199 191 185 178 172 166 156 142 134 124 110 104 100 97 95 100 109 111 109 104 102 101 104 105 107
206 243 213 247 209 170 212 262 134 197 200 206 203 200 200 200 203 205 208 208 210 211 208 206 198 192 186 183 178 166 157 148 138 132 124 117 110 106 103 110 117 116 115 113 111 113 110 108 106
221 224 225 238 172 219 223 249 225 208 210 217 214 207 208 208 210 208 209 208 210 208 205 204 200 196 190 185 177 168 161 151 146 139 132 123 117 115 114 117 119 121 122 121 117 118 118 115 109
255 233 243 196 164 228 241 256 255 223 217 224 219 214 214 214 209 211 210 210 210 209 208 206 202 197 193 186 180 173 167 159 151 145 139 132 129 125 121 122 125 129 134 131 127 125 118 115 109
243 251 249 257 177 215 269 267 264 238 229 221 216 215 215 211 207 208 209 211 211 212 209 206 202 199 193 187 185 180 172 166 158 155 150 145 139 132 126 125 127 129 136 139 135 132 124 119 109
233 238 246 255 195 238 287 276 255 234 233 226 222 220 216 210 208 208 209 210 210 211 209 207 203 199 195 191 187 184 178 174 168 165 158 152 145 138 132 128 127 133 141 145 146 137 126 113 110
248 227 224 211 231 263 246 284 256 235 232 221 223 216 212 209 211 210 208 209 211 211 208 207 204 201 198 194 191 189 187 181 176 172 166 162 158 154 151 148 145 144 140 142 143 145 141 130 117
247 171 191 209 240 288 219 267 253 147 252 238 218 215 211 211 209 208 210 212 211 209 208 205 203 203 201 197 194 192 189 186 183 179 176 172 171 168 165 163 159 153 152 157 154 148 146 136 127
141 117 91 97 225 254 237 225 269 233 228 242 228 218 212 207 208 209 211 210 209 207 206 205 204 203 202 200 198 197 195 192 190 186 183 181 181 179 176 174 170 169 172 170 163 161 156 147 136
204 168 201 223 206 255 123 226 253 297 257 238 247 224 214 207 205 204 204 205 206 206 204 204 205 205 204 202 201 200 198 196 196 194 192 190 189 188 184 181 184 183 182 180 182 183 180 175 172
187 225 212 253 227 281 145 238 256 248 289 264 252 251 218 205 207 207 207 206 206 204 205 205 205 206 206 205 203 202 201 200 199 198 198 197 196 195 192 193 193 193 190 193 197 199 203 210 219
173 215 58 38 122 271 235 259 273 259 267 256 254 233 220 209 205 206 204 205 205 204 205 206 205 207 209 207 205 205 205 204 204 203 201 202 202 201 200 201 201 202 203 206 211 219 229 238 248
270 90 160 199 245 250 243 262 248 283 252 243 235 231 224 208 203 199 202 203 204 205 206 206 207 209 210 209 209 209 209 207 209 208 209 208 207 207 209 209 211 214 216 220 226 234 245 255 264
170 201 210 291 230 258 281 263 222 243 331 291 284 246 225 212 204 199 201 202 204 205 206 206 205 207 208 209 210 210 210 210 212 211 211 212 213 213 214 216 219 222 226 231 238 247 256 264 271
329 222 187 221 216 242 284 260 234 268 280 282 286 253 225 213 206 202 201 202 204 206 207 206 207 208 209 209 209 210 210 211 213 213 213 214 215 216 217 219 224 228 233 240 246 254 262 269 274